TimeCDT,TemperatureF,Dew PointF,Humidity,Sea Level PressureIn,VisibilityMPH,Wind Direction,Wind SpeedMPH,Gust SpeedMPH,PrecipitationIn,Events,Conditions,WindDirDegrees,DateUTC
12:15 AM,25.2,23.7,94,29.77,1.8,ENE,9.2,-,0.02,Snow,Light Snow,60,2014-04-04 05:15:00
12:35 AM,25.2,23.5,94,29.75,3.0,NE,9.2,-,0.03,Snow,Light Snow,50,2014-04-04 05:35:00
12:55 AM,25.3,23.5,93,29.74,4.0,ENE,9.2,-,0.04,Snow,Light Snow,60,2014-04-04 05:55:00
1:15 AM,25.3,23.5,93,29.72,4.0,NE,9.2,-,0.01,Snow,Light Snow,50,2014-04-04 06:15:00
1:35 AM,25.3,23.7,94,29.71,2.5,NE,9.2,-,0.02,,Overcast,50,2014-04-04 06:35:00
1:55 AM,25.7,24.3,94,29.70,5.0,NE,9.2,-,0.03,,Overcast,40,2014-04-04 06:55:00
2:15 AM,25.7,23.9,93,29.70,4.0,NNE,6.9,-,0.01,,Overcast,30,2014-04-04 07:15:00
2:35 AM,25.7,24.3,94,29.71,3.0,NE,5.8,-,0.02,,Overcast,40,2014-04-04 07:35:00
2:55 AM,25.7,24.6,96,29.71,3.0,North,3.5,-,0.03,,Overcast,10,2014-04-04 07:55:00
3:15 AM,25.7,24.8,96,29.69,2.0,NNE,6.9,-,0.02,Snow,Light Snow,30,2014-04-04 08:15:00
3:35 AM,25.7,24.8,96,29.67,1.5,NNE,5.8,-,0.03,Snow,Light Snow,30,2014-04-04 08:35:00
3:55 AM,25.5,24.6,96,29.65,1.0,NNE,8.1,-,0.05,Snow,Light Snow,30,2014-04-04 08:55:00
4:15 AM,25.5,23.9,94,29.65,4.0,NE,10.4,-,0.01,Snow,Light Snow,40,2014-04-04 09:15:00
4:35 AM,25.5,24.1,94,29.64,2.5,NE,9.2,-,0.01,,Overcast,50,2014-04-04 09:35:00
4:55 AM,26.4,24.8,94,29.62,4.0,ENE,11.5,18.4,0.02,,Overcast,60,2014-04-04 09:55:00
5:15 AM,26.4,24.8,94,29.60,5.0,ENE,11.5,18.4,N/A,,Overcast,60,2014-04-04 10:15:00
5:35 AM,26.4,24.8,94,29.59,7.0,NE,9.2,-,N/A,,Overcast,50,2014-04-04 10:35:00
5:55 AM,26.6,25.2,94,29.58,7.0,NE,10.4,-,N/A,,Overcast,40,2014-04-04 10:55:00
6:15 AM,26.6,25.2,94,29.60,7.0,NNE,4.6,-,N/A,,Overcast,30,2014-04-04 11:15:00
6:30 AM,26.6,25.3,95,29.63,4.0,Calm,Calm,-,N/A,Snow,Light Snow,0,2014-04-04 11:30:00
6:50 AM,26.4,25.7,97,29.62,1.0,North,4.6,-,0.01,Snow,Snow,10,2014-04-04 11:50:00
7:15 AM,26.4,25.7,97,29.60,1.0,NNE,9.2,-,N/A,Snow,Light Snow,20,2014-04-04 12:15:00
7:35 AM,26.4,25.5,96,29.60,0.5,North,6.9,-,0.01,Snow,Snow,10,2014-04-04 12:35:00
7:55 AM,26.6,25.7,96,29.61,0.2,NNE,8.1,-,0.03,Snow,Snow,30,2014-04-04 12:55:00
8:15 AM,26.6,25.7,96,29.60,0.5,NNE,12.7,18.4,0.02,Snow,Light Snow,20,2014-04-04 13:15:00
8:35 AM,26.6,25.2,94,29.59,2.5,NNE,13.8,18.4,0.02,Snow,Light Snow,30,2014-04-04 13:35:00
8:55 AM,27.0,24.8,92,29.59,7.0,NNE,12.7,17.3,0.02,Snow,Light Snow,20,2014-04-04 13:55:00
9:15 AM,27.3,24.8,90,29.57,5.0,NNE,12.7,19.6,N/A,Snow,Light Snow,20,2014-04-04 14:15:00
9:35 AM,27.5,25.5,92,29.55,1.2,NNE,12.7,21.9,N/A,Snow,Light Snow,20,2014-04-04 14:35:00
9:55 AM,27.5,25.3,92,29.59,1.5,NNE,8.1,-,N/A,Snow,Light Snow,20,2014-04-04 14:55:00
10:15 AM,28.0,25.7,91,29.59,3.0,NNE,8.1,-,N/A,Snow,Light Snow,20,2014-04-04 15:15:00
10:35 AM,27.9,25.0,89,29.58,4.0,North,11.5,21.9,N/A,Snow,Light Snow,10,2014-04-04 15:35:00
10:55 AM,27.3,24.8,90,29.58,2.5,North,13.8,23.0,N/A,,Overcast,10,2014-04-04 15:55:00
11:15 AM,27.3,24.8,90,29.58,2.5,North,10.4,18.4,N/A,Snow,Light Snow,10,2014-04-04 16:15:00
11:35 AM,27.1,24.4,90,29.58,4.0,North,11.5,17.3,N/A,,Overcast,360,2014-04-04 16:35:00
11:55 AM,27.1,24.1,88,29.59,5.0,North,9.2,17.3,N/A,,Overcast,360,2014-04-04 16:55:00
12:15 PM,27.0,23.5,87,29.60,7.0,North,12.7,17.3,N/A,,Overcast,10,2014-04-04 17:15:00
12:35 PM,27.0,23.0,85,29.60,5.0,North,11.5,19.6,N/A,,Overcast,350,2014-04-04 17:35:00
1:15 PM,26.6,23.2,87,29.62,2.5,North,13.8,19.6,N/A,Snow,Light Snow,360,2014-04-04 18:15:00
1:35 PM,26.6,23.0,86,29.63,1.8,North,16.1,21.9,N/A,Snow,Light Snow,360,2014-04-04 18:35:00
1:55 PM,26.4,23.4,88,29.64,1.2,North,10.4,21.9,N/A,Snow,Light Snow,350,2014-04-04 18:55:00
2:15 PM,26.2,23.0,88,29.65,1.0,NNW,15.0,23.0,N/A,Snow,Light Snow,340,2014-04-04 19:15:00
2:35 PM,25.7,23.0,89,29.66,1.2,North,8.1,16.1,N/A,Snow,Light Snow,350,2014-04-04 19:35:00
2:55 PM,25.7,23.4,91,29.67,0.8,NNW,16.1,23.0,N/A,Snow,Light Snow,340,2014-04-04 19:55:00
3:15 PM,25.5,23.0,90,29.68,1.2,North,11.5,17.3,N/A,Snow,Light Snow,350,2014-04-04 20:15:00
3:55 PM,25.2,22.8,91,29.70,1.0,NNW,12.7,19.6,N/A,Snow,Light Snow,340,2014-04-04 20:55:00
4:15 PM,25.3,22.5,89,29.71,1.8,North,15.0,24.2,N/A,Snow,Light Snow,350,2014-04-04 21:15:00
4:35 PM,25.7,21.7,85,29.72,2.5,North,12.7,25.3,N/A,Snow,Light Snow,350,2014-04-04 21:35:00
4:55 PM,26.1,22.1,85,29.73,3.0,North,11.5,18.4,N/A,Snow,Light Snow,350,2014-04-04 21:55:00
5:15 PM,26.4,23.0,87,29.74,2.5,NNW,13.8,20.7,N/A,Snow,Light Snow,340,2014-04-04 22:15:00
5:35 PM,27.0,23.9,88,29.75,4.0,North,9.2,18.4,N/A,Snow,Light Snow,350,2014-04-04 22:35:00
5:55 PM,27.3,24.3,88,29.76,3.0,North,15.0,24.2,N/A,Snow,Light Snow,350,2014-04-04 22:55:00
6:15 PM,27.5,24.4,88,29.77,3.0,NNW,13.8,20.7,N/A,,Overcast,340,2014-04-04 23:15:00
6:35 PM,27.9,24.6,88,29.79,4.0,NNW,13.8,21.9,N/A,Snow,Light Snow,340,2014-04-04 23:35:00
6:55 PM,28.0,24.6,87,29.80,4.0,North,12.7,28.8,N/A,Snow,Light Snow,350,2014-04-04 23:55:00
7:15 PM,27.9,24.8,88,29.81,4.0,NNW,8.1,18.4,N/A,,Overcast,340,2014-04-05 00:15:00
7:35 PM,27.9,24.8,88,29.82,5.0,North,8.1,18.4,N/A,Snow,Light Snow,350,2014-04-05 00:35:00
7:55 PM,27.5,24.6,89,29.83,10.0,NNW,10.4,-,N/A,Snow,Light Snow,340,2014-04-05 00:55:00
8:15 PM,27.5,24.4,88,29.84,10.0,North,9.2,17.3,N/A,,Overcast,350,2014-04-05 01:15:00
8:35 PM,27.3,23.9,87,29.85,10.0,NNW,12.7,17.3,N/A,,Overcast,340,2014-04-05 01:35:00
8:55 PM,27.7,23.9,86,29.86,10.0,North,10.4,16.1,N/A,,Overcast,350,2014-04-05 01:55:00
9:15 PM,27.0,23.0,85,29.87,10.0,North,6.9,16.1,N/A,,Mostly Cloudy,350,2014-04-05 02:15:00
9:35 PM,26.6,23.0,86,29.88,10.0,NNW,8.1,-,N/A,,Scattered Clouds,340,2014-04-05 02:35:00
9:55 PM,26.1,22.5,86,29.89,10.0,NNW,5.8,-,N/A,,Clear,340,2014-04-05 02:55:00
10:15 PM,24.8,21.7,88,29.89,10.0,NNW,3.5,-,N/A,,Clear,330,2014-04-05 03:15:00
10:35 PM,22.5,20.7,93,29.89,10.0,NNW,3.5,-,N/A,,Scattered Clouds,330,2014-04-05 03:35:00
10:55 PM,21.6,20.5,96,29.89,10.0,Calm,Calm,-,N/A,,Scattered Clouds,0,2014-04-05 03:55:00
11:15 PM,16.9,15.4,94,29.90,5.0,Calm,Calm,-,N/A,,Clear,0,2014-04-05 04:15:00
11:35 PM,16.7,15.6,96,29.91,2.5,Calm,Calm,-,N/A,,Clear,0,2014-04-05 04:35:00
11:55 PM,15.1,13.3,93,29.91,0.8,Calm,Calm,-,N/A,,Mist,0,2014-04-05 04:55:00